Location: Newark
(48.6461°N, 4.3644°W)
Time: 17:21:57
(UTC+00:00)

STARLINK 1043 - Pass Details

Date: 11 December 2019
Orbit: 548 x 551 km, 53.0° (Epoch: 24 January)

Event Time Altitude Azimuth Distance (km) Brightness Sun altitude
Exits shadow 05:04:49 35° 136° (SE) 916 5.0 -27.7°
Drops below altitude 10° 05:07:19 10° 127° (SE) 1,840 7.0 -27.3°
Enters shadow 06:05:55 -65° 317° (NW) 12,161 10.4 -17.8°
Sets 06:47:45 0° 168° (SSE) 2,728 7.7 -11.2°
